EW4964 Weather Reports


Display with metric or nautical units.
time (UTC)temp
F
wind
direction
speed
MPH
gust
MPH
rain 1hr
in
rain 24hr
in
rain mn
in
humidity
%
barometer
mb
20260508174507 50 135 3.0 5.0 0.00 0.00 0.00 41 1017.8
20260508173007 52 67 3.0 5.0 0.00 0.00 0.00 41 1017.8
20260508171507 53 50 3.0 6.0 0.00 0.00 0.00 35 1017.8
20260508170007 55 88 3.0 7.0 0.00 0.00 0.00 34 1017.7
20260508164507 58 90 4.0 9.0 0.00 0.00 0.00 33 1017.8
20260508163007 57 90 6.0 11.0 0.00 0.00 0.00 33 1017.8
20260508161506 58 87 3.0 7.0 0.00 0.00 0.00 34 1017.8
20260508154506 58 46 5.0 9.0 0.00 0.00 0.00 34 1017.8
20260508153007 55 43 5.0 8.0 0.00 0.00 0.00 37 1018.0
20260508151506 54 45 5.0 9.0 0.00 0.00 0.00 38 1018.0
20260508144507 54 90 3.0 7.0 0.00 0.00 0.00 37 1018.0
20260508141506 57 45 5.0 11.0 0.00 0.00 0.00 37 1017.9
20260508140006 55 19 3.0 7.0 0.00 0.00 0.00 37 1018.0
20260508134507 55 42 3.0 7.0 0.00 0.00 0.00 35 1017.8
20260508133007 55 45 4.0 9.0 0.00 0.00 0.00 37 1017.8
20260508131506 54 49 3.0 9.0 0.00 0.00 0.00 38 1017.8
20260508130007 53 1 2.0 6.0 0.00 0.00 0.00 35 1017.8
20260508124507 54 2 3.0 7.0 0.00 0.00 0.00 35 1017.8
20260508123007 54 3 3.0 6.0 0.00 0.00 0.00 37 1017.9
20260508120006 55 11 3.0 9.0 0.00 0.00 0.00 34 1017.5
20260508114506 55 343 3.0 9.0 0.00 0.00 0.00 35 1017.9
20260508111506 55 18 3.0 9.0 0.00 0.00 0.00 34 1017.6
20260508110006 54 1 3.0 7.0 0.00 0.00 0.00 38 1017.7
20260508104506 52 7 5.0 10.0 0.00 0.00 0.00 40 1017.7
20260508103006 52 12 2.0 5.0 0.00 0.00 0.00 41 1017.9
20260508101506 51 1 3.0 7.0 0.00 0.00 0.00 41 1017.7
20260508100005 51 352 2.0 4.0 0.00 0.00 0.00 41 1017.7
20260508094505 52 2 4.0 8.0 0.00 0.00 0.00 41 1017.8
20260508093005 52 1 3.0 8.0 0.00 0.00 0.00 41 1017.9
20260508090005 53 356 1.0 4.0 0.00 0.00 0.00 39 1017.6
20260508084505 52 340 2.0 7.0 0.00 0.00 0.00 42 1017.6
20260508083006 51 17 2.0 5.0 0.00 0.00 0.00 43 1017.7
20260508081505 51 344 2.0 5.0 0.00 0.00 0.00 43 1017.8
20260508074506 49 27 3.0 6.0 0.00 0.00 0.00 46 1017.4
20260508073006 48 358 2.0 4.0 0.00 0.00 0.00 48 1017.5
20260508071505 48 267 2.0 5.0 0.00 0.00 0.00 50 1017.3
20260508070006 47 347 2.0 4.0 0.00 0.00 0.00 51 1017.1
20260508064506 47 270 1.0 4.0 0.00 0.00 0.00 52 1017.0
20260508054506 46 342 1.0 3.0 0.00 0.00 0.00 65 1016.6
20260508050006 44 27 1.0 5.0 0.00 0.00 0.00 71 1016.6
20260508044504 43 38 2.0 6.0 0.00 0.00 0.00 73 1016.5
20260508043005 43 45 2.0 4.0 0.00 0.00 0.00 72 1016.4
20260508041505 43 49 2.0 4.0 0.00 0.00 0.00 71 1016.1
20260508034505 42 350 1.0 3.0 0.00 0.00 0.00 67 1015.9
20260508033005 42 1 1.0 4.0 0.00 0.00 0.00 68 1015.8
20260508031505 43 9 1.0 4.0 0.00 0.00 0.00 67 1015.6
20260508030005 43 1 1.0 3.0 0.00 0.00 0.00 66 1015.9
20260508024504 42 289 1.0 3.0 0.00 0.00 0.00 64 1015.9
20260508023004 42 270 0.0 2.0 0.00 0.00 0.00 63 1015.8
20260508021504 42 270 1.0 3.0 0.00 0.00 0.00 62 1015.8
20260508020005 42 270 0.0 1.0 0.00 0.00 0.00 61 1015.7
20260508014504 42 270 0.0 1.0 0.00 0.00 0.00 61 1015.8
20260508013005 43 270 0.0 1.0 0.00 0.00 0.00 61 1015.7
20260508011505 43 270 0.0 2.0 0.00 0.00 0.00 61 1015.8
20260508010007 44 270 0.0 1.0 0.00 0.00 0.00 61 1015.6
20260508003005 44 270 0.0 2.0 0.00 0.00 0.00 54 1015.7
20260508001504 45 304 0.0 2.0 0.00 0.00 0.00 53 1015.8
20260508000004 45 330 1.0 3.0 0.00 0.00 0.00 53 1015.8
20260507233005 46 357 0.0 2.0 0.00 0.00 0.00 51 1015.8
20260507230007 47 314 0.0 2.0 0.00 0.00 0.00 51 1015.9
20260507224507 47 1 1.0 3.0 0.00 0.00 0.00 49 1015.8
20260507221507 49 24 2.0 5.0 0.00 0.00 0.00 50 1015.8
20260507220010 49 3 1.0 4.0 0.00 0.00 0.00 50 1015.8
20260507214508 49 346 1.0 4.0 0.00 0.00 0.00 49 1015.8
20260507213008 49 357 2.0 5.0 0.00 0.00 0.00 48 1015.9
20260507211507 49 1 4.0 7.0 0.00 0.00 0.00 48 1015.7
20260507210007 49 7 3.0 7.0 0.00 0.00 0.00 47 1015.6
20260507204507 49 1 2.0 6.0 0.00 0.00 0.00 46 1015.3
20260507203008 49 359 2.0 5.0 0.00 0.00 0.00 45 1015.4
20260507200009 60 337 5.0 15.0 0.00 0.00 0.00 32 1015.5
20260507194508 60 337 5.0 15.0 0.00 0.00 0.00 32 1015.5
20260507193008 60 337 5.0 15.0 0.00 0.00 0.00 32 1015.5
20260507191507 60 337 5.0 15.0 0.00 0.00 0.00 32 1015.5
20260507190008 60 337 5.0 15.0 0.00 0.00 0.00 32 1015.5
20260507184508 60 337 5.0 15.0 0.00 0.00 0.00 32 1015.5
20260507183008 60 337 5.0 15.0 0.00 0.00 0.00 32 1015.5
20260507181507 60 337 5.0 15.0 0.00 0.00 0.00 32 1015.5
20260507180008 60 337 5.0 15.0 0.00 0.00 0.00 32 1015.5